Location: Highland Meadows Observing Site
(48.4428°N, 114.5461°W)
Time: 16:13:36
(UTC-06:00)

Amateur Radio Satellites - All Passes

Search period start: 30 August 2014 15:43
Search period end: 31 August 2014 15:43
Location: Highland Meadows Observing Site, 48.4428°N, 114.5461°W

Satellite Date Start Highest point End Downlink Frequencies (MHz)
Time Altitude Azimuth
AO-7 30 Aug 15:43:43 15:51:25 44° 57° (ENE) 15:59:07 29.400 - 29.500 MHz
AO-Echo 30 Aug 15:43:49 15:48:15 31° 265° (W) 15:52:35 ?
ITAMSAT 1 30 Aug 15:45:49 15:50:28 34° 264° (W) 15:55:09 435.822 SSB
Oscar 16 30 Aug 15:51:09 15:54:05 15° 272° (W) 15:57:01 437.025 USB, Beacon 2401.1428
TMSAT-1 30 Aug 15:52:36 15:57:54 80° 256° (WSW) 16:03:14 436.925 FM
Uribyol 2 30 Aug 15:56:20 16:00:38 26° 267° (W) 16:04:58 436.500 FM
RS-15 30 Aug 16:05:37 16:16:22 54° 36° (NE) 16:27:26 29.354 - 29.394 USB, Beacon 29.352 USB
AO-27 30 Aug 16:16:08 16:19:48 19° 270° (W) 16:23:28 436.795 MHz FM
Uosat F 30 Aug 16:33:10 16:38:03 55° 69° (ENE) 16:42:57 435.120 FM
ISS 30 Aug 16:35:21 16:38:42 81° 20° (NNE) 16:42:02 145.800 FM
Gurwin Techsat 1B 30 Aug 16:42:08 16:46:27 25° 268° (W) 16:50:48 435.225 FM
MaSat-1 30 Aug 16:42:39 16:46:02 17° 324° (NW) 16:49:25 437.345 MHz
PCSat 30 Aug 16:50:37 16:53:45 16° 104° (ESE) 16:56:53 145.825 MHz
JAS-1B 30 Aug 16:54:21 17:01:52 25° 272° (W) 17:08:51 435.800 - 435.900 CW/SSB
JAS-2 30 Aug 17:30:22 17:35:12 27° 62° (ENE) 17:39:42 435.800 - 435.900 CW/SSB, 435.910 FM
AO-7 30 Aug 17:35:57 17:44:04 54° 258° (WSW) 17:52:13 29.400 - 29.500 MHz
TMSAT-1 30 Aug 17:36:40 17:38:42 12° 275° (W) 17:40:43 436.925 FM
Hamsat 30 Aug 17:47:53 17:51:36 28° 66° (ENE) 17:55:21 145.90 MHz
OPAL 30 Aug 17:50:29 17:55:24 39° 100° (E) 18:00:16 ?
Sapphire 30 Aug 18:01:43 18:06:56 52° 117° (ESE) 18:12:12 437.095 MHz 1200 baud AX-25 AFSK
ISS 30 Aug 18:12:27 18:15:10 23° 219° (SW) 18:17:53 145.800 FM
Uosat F 30 Aug 18:13:19 18:17:10 22° 268° (W) 18:21:03 435.120 FM
RS-15 30 Aug 18:18:18 18:29:04 62° 242° (WSW) 18:40:15 29.354 - 29.394 USB, Beacon 29.352 USB
PCSat 30 Aug 18:30:58 18:36:23 89° 124° (SE) 18:41:52 145.825 MHz
SO-67 30 Aug 18:47:19 18:49:26 15° 64° (ENE) 18:51:32 435.3500 MHz FM
JAS-2 30 Aug 19:14:11 19:20:07 54° 259° (W) 19:25:29 435.800 - 435.900 CW/SSB, 435.910 FM
Hamsat 30 Aug 19:23:33 19:27:29 34° 264° (W) 19:31:28 145.90 MHz
HO-68 30 Aug 19:29:25 19:33:47 18° 46° (NE) 19:38:09 435.675 MHz FM
OPAL 30 Aug 19:29:31 19:34:13 35° 298° (WNW) 19:38:53 ?
STRAND 1 30 Aug 19:34:31 19:38:30 23° 92° (E) 19:42:28 ?
AO-7 30 Aug 19:37:22 19:38:51 11° 280° (W) 19:40:20 29.400 - 29.500 MHz
Sapphire 30 Aug 19:45:41 19:50:36 34° 318° (NW) 19:55:33 437.095 MHz 1200 baud AX-25 AFSK
PCSat 30 Aug 20:16:14 20:20:33 24° 325° (NW) 20:24:53 145.825 MHz
SO-67 30 Aug 20:18:51 20:22:10 43° 261° (W) 20:25:31 435.3500 MHz FM
RS-15 30 Aug 20:33:36 20:39:00 15° 265° (W) 20:44:31 29.354 - 29.394 USB, Beacon 29.352 USB
AO-40 30 Aug 20:50:45 02:39:44 30° 185° (S) 07:39:34 Beacon 2401.320
UKube-1 30 Aug 21:10:16 21:13:52 26° 64° (ENE) 21:17:28 145.840 MHz, 145.915 MHz
STRAND 1 30 Aug 21:13:03 21:18:02 55° 291° (WNW) 21:23:00 ?
HO-68 30 Aug 21:13:12 21:20:15 66° 67° (ENE) 21:27:19 435.675 MHz FM
Oscar 11 30 Aug 21:16:55 21:20:02 20° 62° (ENE) 21:23:10 145.825 FM, Beacon 2401.500 USB
Sapphire 30 Aug 21:33:14 21:35:45 13° 342° (NNW) 21:38:16 437.095 MHz 1200 baud AX-25 AFSK
MaSat-1 30 Aug 21:40:56 21:44:10 17° 36° (NE) 21:47:11 437.345 MHz
FUNcube-1 30 Aug 21:43:29 21:45:53 15° 59° (ENE) 21:48:19 145.950 - 145.970 MHz USB
PCSat 30 Aug 22:04:31 22:06:04 11° 351° (N) 22:07:38 145.825 MHz
UKube-1 30 Aug 22:45:52 22:49:55 38° 262° (W) 22:54:00 145.840 MHz, 145.915 MHz
Oscar 11 30 Aug 22:51:37 22:55:52 53° 260° (W) 23:00:09 145.825 FM, Beacon 2401.500 USB
KITSAT 1 30 Aug 22:52:16 22:56:30 15° 99° (E) 23:00:44 435.175 FM
STRAND 1 30 Aug 22:55:49 22:56:10 10° 310° (NW) 22:56:30 ?
HO-68 30 Aug 23:02:28 23:08:28 29° 267° (W) 23:14:32 435.675 MHz FM
MaSat-1 30 Aug 23:17:16 23:22:04 82° 60° (ENE) 23:26:13 437.345 MHz
FUNcube-1 30 Aug 23:17:34 23:21:45 71° 258° (WSW) 23:26:03 145.950 - 145.970 MHz USB
Sapphire 30 Aug 23:20:09 23:21:45 11° 9° (N) 23:23:20 437.095 MHz 1200 baud AX-25 AFSK
Saudisat 1A 30 Aug 23:36:17 23:40:27 43° 121° (ESE) 23:44:39 436.775 MHz
PCSat 30 Aug 23:49:30 23:52:04 13° 18° (NNE) 23:54:38 145.825 MHz
KITSAT 1 31 Aug 00:42:24 00:50:23 67° 119° (ESE) 00:58:25 435.175 FM
MaSat-1 31 Aug 00:56:11 00:58:12 13° 261° (W) 01:00:06 437.345 MHz
Sapphire 31 Aug 01:02:54 01:07:16 24° 35° (NE) 01:11:37 437.095 MHz 1200 baud AX-25 AFSK
Saudisat 1A 31 Aug 01:16:10 01:20:10 33° 321° (NW) 01:24:11 436.775 MHz
PCSat 31 Aug 01:32:13 01:37:11 35° 42° (NE) 01:42:08 145.825 MHz
Oscar 19 31 Aug 01:44:53 01:46:02 11° 84° (E) 01:47:10 437.125 CW, 437.150 USB
Oscar 16 31 Aug 02:17:29 02:21:32 22° 92° (E) 02:25:33 437.025 USB, Beacon 2401.1428
Uribyol 2 31 Aug 02:26:46 02:28:54 12° 86° (E) 02:31:02 436.500 FM
Oscar 10/S400 31 Aug 02:33:09 03:29:22 42° 212° (SSW) 09:07:37 145.825 - 145.975 CW/USB, Beacon 145.810 USB
KITSAT 1 31 Aug 02:38:43 02:46:18 42° 323° (NW) 02:53:56 435.175 FM
AO-27 31 Aug 02:44:57 02:48:22 18° 89° (E) 02:51:47 436.795 MHz FM
JAS-1B 31 Aug 02:45:17 02:49:59 19° 84° (E) 02:54:15 435.800 - 435.900 CW/SSB
Sapphire 31 Aug 02:45:56 02:51:25 88° 237° (WSW) 02:56:51 437.095 MHz 1200 baud AX-25 AFSK
Saudisat 1A 31 Aug 02:59:16 03:01:05 12° 344° (NNW) 03:02:53 436.775 MHz
Gurwin Techsat 1B 31 Aug 03:14:39 03:17:47 16° 88° (E) 03:20:55 435.225 FM
PCSat 31 Aug 03:15:34 03:20:49 51° 243° (WSW) 03:26:02 145.825 MHz
Oscar 19 31 Aug 03:21:04 03:26:18 74° 103° (ESE) 03:31:29 437.125 CW, 437.150 USB
OPAL 31 Aug 03:32:26 03:35:55 19° 54° (NE) 03:39:26 ?
AO-Echo 31 Aug 03:46:23 03:51:04 63° 102° (ESE) 03:55:44 ?
SO-50 31 Aug 03:50:03 03:52:59 17° 111° (ESE) 03:55:58 436.795 FM
ITAMSAT 1 31 Aug 03:54:05 03:59:15 66° 102° (ESE) 04:04:24 435.822 SSB
Oscar 16 31 Aug 03:56:09 04:01:15 57° 290° (WNW) 04:06:20 437.025 USB, Beacon 2401.1428
Uribyol 2 31 Aug 04:03:58 04:09:11 83° 105° (ESE) 04:14:24 436.500 FM
TMSAT-1 31 Aug 04:04:56 04:09:37 31° 95° (E) 04:14:17 436.925 FM
AO-27 31 Aug 04:23:16 04:28:27 72° 288° (WNW) 04:33:37 436.795 MHz FM
Sapphire 31 Aug 04:30:59 04:34:03 15° 256° (WSW) 04:37:06 437.095 MHz 1200 baud AX-25 AFSK
JAS-1B 31 Aug 04:34:41 04:41:46 78° 289° (WNW) 04:47:46 435.800 - 435.900 CW/SSB
KITSAT 1 31 Aug 04:37:57 04:44:08 23° 351° (N) 04:50:19 435.175 FM
Uosat F 31 Aug 04:39:03 04:41:04 12° 87° (E) 04:43:05 435.120 FM
Saudisat 1A 31 Aug 04:41:46 04:42:39 11° 9° (N) 04:43:32 436.775 MHz
Gurwin Techsat 1B 31 Aug 04:53:06 04:58:26 83° 286° (WNW) 05:03:45 435.225 FM
Oscar 19 31 Aug 05:01:27 05:05:06 20° 302° (WNW) 05:08:45 437.125 CW, 437.150 USB
OPAL 31 Aug 05:09:07 05:14:12 79° 253° (WSW) 05:19:24 ?
AO-Echo 31 Aug 05:26:09 05:29:26 19° 301° (WNW) 05:32:42 ?
SO-50 31 Aug 05:28:30 05:33:00 73° 311° (NW) 05:37:38 436.795 FM
AO-7 31 Aug 05:32:58 05:40:48 43° 99° (E) 05:48:33 29.400 - 29.500 MHz
ITAMSAT 1 31 Aug 05:34:27 05:38:18 22° 301° (WNW) 05:42:10 435.822 SSB
Oscar 16 31 Aug 05:38:24 05:39:33 11° 310° (NW) 05:40:42 437.025 USB, Beacon 2401.1428
Uribyol 2 31 Aug 05:44:41 05:48:02 18° 304° (NW) 05:51:24 436.500 FM
TMSAT-1 31 Aug 05:44:42 05:49:40 43° 293° (WNW) 05:54:38 436.925 FM
UOSAT-12 31 Aug 05:47:04 05:50:31 21° 113° (ESE) 05:54:02 437.025 FM, 437.400 FM
AO-27 31 Aug 06:04:43 06:07:06 13° 307° (NW) 06:09:28 436.795 MHz FM
Uosat F 31 Aug 06:15:35 06:20:38 86° 105° (ESE) 06:25:38 435.120 FM
JAS-2 31 Aug 06:20:04 06:22:42 14° 88° (E) 06:25:23 435.800 - 435.900 CW/SSB, 435.910 FM
Saudisat 1A 31 Aug 06:20:17 06:23:51 23° 33° (NNE) 06:27:23 436.775 MHz
JAS-1B 31 Aug 06:26:35 06:31:05 18° 314° (NW) 06:35:12 435.800 - 435.900 CW/SSB
Gurwin Techsat 1B 31 Aug 06:34:38 06:37:37 15° 306° (NW) 06:40:37 435.225 FM
KITSAT 1 31 Aug 06:35:51 06:42:34 27° 21° (NNE) 06:49:15 435.175 FM
RS-15 31 Aug 06:41:02 06:46:18 15° 95° (E) 06:51:32 29.354 - 29.394 USB, Beacon 29.352 USB
OPAL 31 Aug 06:52:12 06:53:56 12° 272° (W) 06:55:42 ?
STRAND 1 31 Aug 06:53:53 06:58:45 47° 68° (ENE) 07:03:38 ?
Hamsat 31 Aug 07:05:17 07:09:15 33° 96° (E) 07:13:11 145.90 MHz
SO-50 31 Aug 07:11:04 07:14:22 19° 333° (NNW) 07:17:44 436.795 FM
UOSAT-12 31 Aug 07:25:38 07:30:15 64° 312° (NW) 07:34:59 437.025 FM, 437.400 FM
AO-7 31 Aug 07:25:49 07:33:46 53° 300° (WNW) 07:41:41 29.400 - 29.500 MHz
SO-67 31 Aug 07:41:09 07:41:44 10° 88° (E) 07:42:18 435.3500 MHz FM
Uosat F 31 Aug 07:55:44 07:58:46 16° 304° (NW) 08:01:48 435.120 FM
Saudisat 1A 31 Aug 07:59:29 08:03:55 77° 234° (SW) 08:08:19 436.775 MHz
JAS-2 31 Aug 08:03:17 08:08:31 87° 286° (WNW) 08:14:05 435.800 - 435.900 CW/SSB, 435.910 FM
KITSAT 1 31 Aug 08:31:36 08:39:39 64° 47° (NE) 08:47:39 435.175 FM
STRAND 1 31 Aug 08:33:56 08:38:10 26° 266° (W) 08:42:26 ?
Hamsat 31 Aug 08:41:23 08:45:09 29° 294° (WNW) 08:48:52 145.90 MHz
RS-15 31 Aug 08:45:25 08:56:11 62° 118° (ESE) 09:06:51 29.354 - 29.394 USB, Beacon 29.352 USB
SO-50 31 Aug 08:55:26 08:56:47 11° 358° (N) 08:58:08 436.795 FM
UOSAT-12 31 Aug 09:08:01 09:11:19 18° 334° (NNW) 09:14:38 437.025 FM, 437.400 FM
SO-67 31 Aug 09:11:44 09:15:11 61° 286° (WNW) 09:18:35 435.3500 MHz FM
AO-7 31 Aug 09:20:03 09:24:46 17° 323° (NW) 09:29:28 29.400 - 29.500 MHz
Saudisat 1A 31 Aug 09:41:44 09:42:43 11° 252° (WSW) 09:43:43 436.775 MHz
JAS-2 31 Aug 09:50:08 09:52:59 15° 305° (NW) 09:55:54 435.800 - 435.900 CW/SSB, 435.910 FM
HO-68 31 Aug 10:24:17 10:31:11 48° 100° (E) 10:38:02 435.675 MHz FM
KITSAT 1 31 Aug 10:27:27 10:34:42 38° 250° (WSW) 10:41:55 435.175 FM
UKube-1 31 Aug 10:30:23 10:34:05 27° 95° (E) 10:37:46 145.840 MHz, 145.915 MHz
Oscar 11 31 Aug 10:36:01 10:39:25 22° 92° (E) 10:42:47 145.825 FM, Beacon 2401.500 USB
SO-50 31 Aug 10:36:19 10:39:19 16° 23° (NNE) 10:42:20 436.795 FM
UOSAT-12 31 Aug 10:51:53 10:53:21 11° 359° (N) 10:54:49 437.025 FM, 437.400 FM
ISS 31 Aug 10:57:46 10:59:55 16° 137° (SE) 11:02:04 145.800 FM
RS-15 31 Aug 10:58:13 11:08:53 53° 324° (NW) 11:19:36 29.354 - 29.394 USB, Beacon 29.352 USB
FUNcube-1 31 Aug 11:03:31 11:06:42 19° 91° (E) 11:09:55 145.950 - 145.970 MHz USB
JAS-1B 31 Aug 11:49:44 11:51:19 11° 36° (NE) 11:52:52 435.800 - 435.900 CW/SSB
UKube-1 31 Aug 12:06:23 12:10:22 36° 293° (WNW) 12:14:20 145.840 MHz, 145.915 MHz
Oscar 11 31 Aug 12:11:38 12:15:49 44° 290° (WNW) 12:19:57 145.825 FM, Beacon 2401.500 USB
HO-68 31 Aug 12:12:13 12:18:49 42° 300° (WNW) 12:25:25 435.675 MHz FM
SO-50 31 Aug 12:16:17 12:20:57 51° 45° (NE) 12:25:39 436.795 FM
UOSAT-12 31 Aug 12:32:18 12:35:26 17° 24° (NNE) 12:38:34 437.025 FM, 437.400 FM
ISS 31 Aug 12:32:54 12:36:13 77° 155° (SSE) 12:39:33 145.800 FM
FUNcube-1 31 Aug 12:39:00 12:43:26 56° 288° (WNW) 12:47:55 145.950 - 145.970 MHz USB
Oscar 19 31 Aug 13:03:51 13:08:00 25° 61° (ENE) 13:12:09 437.125 CW, 437.150 USB
MaSat-1 31 Aug 13:09:40 13:13:10 19° 103° (ESE) 13:16:47 437.345 MHz
RS-15 31 Aug 13:14:35 13:24:16 34° 357° (N) 13:34:04 29.354 - 29.394 USB, Beacon 29.352 USB
AO-Echo 31 Aug 13:26:14 13:29:39 19° 59° (ENE) 13:33:01 ?
JAS-1B 31 Aug 13:31:21 13:39:37 36° 58° (ENE) 13:46:59 435.800 - 435.900 CW/SSB
Oscar 16 31 Aug 13:37:52 13:42:47 46° 68° (ENE) 13:47:45 437.025 USB, Beacon 2401.1428
ITAMSAT 1 31 Aug 13:38:04 13:42:06 24° 60° (ENE) 13:46:08 435.822 SSB
Uribyol 2 31 Aug 13:47:23 13:51:45 29° 62° (ENE) 13:56:09 436.500 FM
TMSAT-1 31 Aug 13:53:20 13:55:34 13° 52° (NE) 13:57:49 436.925 FM
SO-50 31 Aug 13:57:14 14:01:20 29° 244° (WSW) 14:05:28 436.795 FM
HO-68 31 Aug 14:02:37 14:04:43 11° 322° (NW) 14:06:49 435.675 MHz FM
AO-27 31 Aug 14:06:22 14:11:08 39° 66° (ENE) 14:15:55 436.795 MHz FM
ISS 31 Aug 14:09:52 14:13:07 47° 355° (N) 14:16:22 145.800 FM
UOSAT-12 31 Aug 14:11:55 14:16:36 55° 46° (NE) 14:21:13 437.025 FM, 437.400 FM
Gurwin Techsat 1B 31 Aug 14:38:53 14:43:40 36° 65° (ENE) 14:48:28 435.225 FM
Oscar 19 31 Aug 14:41:57 14:47:00 55° 260° (W) 14:52:08 437.125 CW, 437.150 USB
MaSat-1 31 Aug 14:44:38 14:49:39 73° 302° (WNW) 14:54:50 437.345 MHz
AO-7 31 Aug 14:46:17 14:52:26 24° 45° (NE) 14:58:34 29.400 - 29.500 MHz
AO-Echo 31 Aug 15:03:00 15:07:59 69° 257° (WSW) 15:12:51 ?
ITAMSAT 1 31 Aug 15:16:08 15:21:13 59° 259° (WSW) 15:26:21 435.822 SSB
Oscar 16 31 Aug 15:17:59 15:22:21 27° 266° (W) 15:26:45 437.025 USB, Beacon 2401.1428
JAS-1B 31 Aug 15:19:55 15:29:39 73° 257° (WSW) 15:38:14 435.800 - 435.900 CW/SSB
Uribyol 2 31 Aug 15:26:07 15:31:03 46° 261° (W) 15:36:02 436.500 FM
TMSAT-1 31 Aug 15:29:19 15:34:33 68° 72° (ENE) 15:39:50 436.925 FM
